Weather History for Alexandria, LA

Change the Weather History Date:

Sunday, October 31, 2010

  Actual Average Record
Temperature  
Mean Temperature 63 °F 63 °F  
Max Temperature 82 °F 75 °F 89 °F (1951)
Min Temperature 44 °F 50 °F 29 °F (1917)
Degree Days  
Heating Degree Days 2 5  
Month to date heating degree days 36 71  
Since 1 July heating degree days 36 73  
Cooling Degree Days 0 2  
Month to date cooling degree days 150 136  
Year to date cooling degree days 2986 2486  
Growing Degree Days 13 (Base 50)    
Moisture  
Dew Point 52 °F    
Average Humidity 68    
Maximum Humidity 93    
Minimum Humidity 42    
Precipitation  
Precipitation 0.00 in 0.06 in 3.29 in (1979)
Month to date precipitation 1.52 5.18  
Year to date precipitation 31.85 44.31  
Snow  
Snow 0.00 in - 0.00 in ()
Month to date snowfall 0.0  
Since 1 July snowfall 0.0  
Since 1 September snowfall 0.0  
Snow Depth 0.00 in    
Sea Level Pressure  
Sea Level Pressure 30.02 in    
Wind  
Wind Speed 3 mph (SSE)    
Max Wind Speed 14 mph    
Max Gust Speed 17 mph    
Visibility 10 miles    
Events      
T = Trace of Precipitation, MM = Missing Value Source: NWS Daily Summary

Daily Weather History Graph

Daily Weather History Graph

Search for Another Location

Airport:

Trip Planner

Search our weather history database for the weather conditions in past years. The results will help you decide how hot, cold, wet, or windy it might be!

Date:

Astronomy

Oct. 31, 2010 Rise Set
Actual Time 7:25 AM CDT 6:22 PM CDT
Civil Twilight 7:00 AM CDT 6:47 PM CDT
Nautical Twilight 6:31 AM CDT 7:15 PM CDT
Astronomical Twilight 6:03 AM CDT 7:44 PM CDT
Moon 1:16 AM CDT (10/31) 2:36 PM CDT (10/31)
Length of Visible Light 11h 47m
Length of Day
10h 57m
Last Quarter, 37% of the Moon is Illuminated
Oct 31
Last Quarter
Nov 5
New
Nov 13
First Quarter
Nov 21
Full
Nov 28
Last Quarter

Hourly Weather History & Observations

Time (CDT) Temp. Heat Index Dew Point Humidity Pressure Visibility Wind Dir Wind Speed Gust Speed Precip Events Conditions
12:53 AM 51.1 °F - 41.0 °F 68% 30.05 in 10.0 mi Calm Calm - N/A   Clear
1:53 AM 48.0 °F - 42.1 °F 80% 30.04 in 10.0 mi Calm Calm - N/A   Clear
2:53 AM 46.0 °F - 42.1 °F 86% 30.04 in 10.0 mi Calm Calm - N/A   Clear
3:53 AM 46.4 °F - 42.8 °F 87% 30.01 in 10.0 mi Calm Calm - N/A   Clear
4:53 AM 46.0 °F - 42.1 °F 86% 30.03 in 10.0 mi Calm Calm - N/A   Clear
5:53 AM 45.0 °F - 42.1 °F 90% 30.04 in 10.0 mi Calm Calm - N/A   Clear
6:53 AM 46.0 °F - 43.0 °F 89% 30.05 in 10.0 mi Calm Calm - N/A   Clear
7:53 AM 46.0 °F - 43.0 °F 89% 30.07 in 10.0 mi Calm Calm - N/A   Clear
8:53 AM 54.0 °F - 50.0 °F 86% 30.08 in 10.0 mi ESE 5.8 mph - N/A   Clear
9:53 AM 61.0 °F - 52.0 °F 72% 30.08 in 10.0 mi ESE 4.6 mph - N/A   Clear
10:53 AM 68.0 °F - 55.0 °F 63% 30.08 in 10.0 mi Variable 3.5 mph - N/A   Clear
11:53 AM 72.0 °F - 57.0 °F 59% 30.06 in 10.0 mi Calm Calm - N/A   Clear
12:53 PM 73.4 °F - 57.2 °F 57% 30.03 in 10.0 mi Calm Calm - N/A   Scattered Clouds
1:53 PM 77.0 °F - 57.0 °F 50% 30.00 in 10.0 mi Calm Calm - N/A   Partly Cloudy
2:53 PM 80.1 °F 80.1 °F 55.0 °F 42% 29.97 in 10.0 mi SSW 8.1 mph 16.1 mph N/A   Scattered Clouds
3:53 PM 81.0 °F 80.8 °F 55.9 °F 42% 29.96 in 10.0 mi SSE 6.9 mph 17.3 mph N/A   Clear
4:53 PM 81.0 °F 80.7 °F 55.0 °F 41% 29.96 in 10.0 mi South 8.1 mph - N/A   Clear
5:53 PM 78.1 °F - 57.0 °F 48% 29.96 in 10.0 mi SSE 4.6 mph - N/A   Clear
6:53 PM 69.1 °F - 57.9 °F 68% 29.97 in 10.0 mi SSE 3.5 mph - N/A   Clear
7:53 PM 66.0 °F - 57.0 °F 73% 29.99 in 10.0 mi SSE 4.6 mph - N/A   Clear
8:53 PM 66.9 °F - 57.9 °F 73% 30.00 in 10.0 mi SSE 5.8 mph - N/A   Clear
9:53 PM 64.9 °F - 60.1 °F 84% 30.02 in 10.0 mi SSE 6.9 mph - N/A   Clear
10:53 PM 66.0 °F - 62.1 °F 87% 30.05 in 10.0 mi South 3.5 mph - N/A   Clear
11:53 PM 64.9 °F - 62.1 °F 90% 30.04 in 10.0 mi SSE 4.6 mph - N/A   Clear